Location: Daybis Observatory
(33.4273°N, 88.8061°W)
Time: 06:05:50
(UTC-05:00)

Daily predictions for brighter satellites

Satellite Brightness Start Highest point End
(mag) Time Altitude Azimuth Time Altitude Azimuth Time Altitude Azimuth
Cosmos 2123 Rocket 4.4 19:30:25 10° N 19:36:18 40° E 19:42:08 10° SSE
SL-27 R/B 3.1 19:34:58 10° N 19:38:19 36° ENE 19:41:41 10° SE
Cosmos 2344 3.8 19:30:48 10° SSW 19:38:31 81° WNW 19:46:47 10° NNE
RESURS DK-1 2.9 19:36:15 10° N 19:40:08 39° ENE 19:43:59 10° SE
CZ-3C R/B 3.8 19:32:39 10° W 19:40:43 18° SW 19:44:17 10° S
CZ-3B DEB 4.2 19:29:32 10° WSW 19:42:56 55° NW 19:49:11 10° NNE
Cosmos 1805 4.0 19:42:24 10° SSE 19:45:50 31° E 19:49:19 10° NNE
GPS 2-05 Rocket1 3.0 19:44:29 10° WSW 19:48:00 64° SSE 19:51:22 11° E
ALOS 2.3 19:46:27 10° SSE 19:51:02 61° ENE 19:55:39 10° N
Cosmos 1378 3.2 19:48:55 10° N 19:52:41 82° W 19:56:24 10° S
Resurs 1-3 4.4 19:49:39 10° SE 19:53:31 32° ENE 19:57:26 10° N
Cosmos 1437 Rocket 4.3 19:50:42 10° SSW 19:54:28 41° W 19:58:20 10° N
Meteor 1-22 Rocket 4.5 19:49:04 10° S 19:54:50 83° W 20:00:52 10° N
Yuri Rocket 3.8 19:52:15 10° WSW 19:56:25 39° S 19:59:42 13° ESE
Meteor 1-4 Rocket 3.1 19:54:05 10° SSE 19:57:12 32° E 20:00:20 10° NNE
Timation 1 Rocket 4.4 19:51:50 10° S 19:57:43 62° ESE 20:03:39 10° NNE
FENGYUN 3A 3.6 19:55:07 10° SSE 20:00:30 74° ENE 20:05:54 10° N
Cosmos 1470 4.2 20:00:38 15° ESE 20:01:58 18° E 20:04:38 10° NE
Cosmos 1833 Rocket 4.0 19:58:55 10° N 20:03:07 21° ENE 20:05:39 16° E
Cosmos 2278 Rocket 2.8 19:59:12 10° SSW 20:04:47 63° WNW 20:10:26 10° NNE
SJ-6B 3.1 20:01:33 10° S 20:05:14 64° W 20:08:57 10° NNW
Cosmos 1544 3.0 20:02:02 10° S 20:05:36 58° E 20:09:11 10° NNE
Cosmos 372 Rocket 4.2 20:04:22 10° S 20:09:11 44° ESE 20:14:02 10° NNE
Cosmos 2098 Rocket 4.4 20:03:52 10° SSE 20:10:41 58° E 20:18:06 10° NNE
Cosmos 1733 4.5 20:10:59 21° E 20:10:59 21° E 20:13:53 10° NE
Delta 128 4.2 20:08:23 10° WSW 20:12:39 41° S 20:15:06 21° ESE
ATLAS 5 CENTAUR R/B 1.9 20:11:39 10° S 20:16:03 48° ESE 20:20:45 10° NE
ISS -3.8 20:13:34 10° SSW 20:16:45 56° SE 20:18:24 25° ENE
H-II Stage 2 1.9 20:18:20 10° WSW 20:20:11 29° S 20:20:28 28° SSE
H-2A R/B 2.7 20:16:40 10° SSE 20:20:32 87° E 20:24:28 10° N
Cosmos 2297 3.6 20:15:00 10° SSW 20:20:40 78° ESE 20:26:24 10° NNE
USA 215 3.4 20:14:35 10° NE 20:20:55 52° SE 20:27:12 10° SSW
Okean 3 Rocket 3.4 20:17:59 10° N 20:22:23 79° E 20:26:49 10° S
Cosmos 1867 3.6 20:17:31 10° SSW 20:22:57 89° WNW 20:28:27 10° NNE
FengYun 1-2 T 4.4 20:17:32 10° S 20:23:04 75° WSW 20:28:41 10° NNW
Tiangong 1 0.8 20:22:18 10° WNW 20:25:14 83° SSW 20:25:52 51° SE
Aurora 2 Rocket 4.2 20:19:07 10° WSW 20:25:32 33° S 20:28:04 23° SE
Spot 2 Rocket 3.4 20:20:48 10° SSE 20:25:54 85° ENE 20:31:01 10° NNW
Abrixas 4.1 20:24:44 10° NNW 20:26:58 21° NNE 20:26:58 21° NNE
Cosmos 1758 3.4 20:26:32 10° S 20:30:29 75° W 20:34:28 10° N
Helios 1B rocket 2.3 20:30:49 10° NNE 20:34:57 70° ESE 20:39:01 10° S
Cosmos 1076 Rocket 3.3 20:31:25 10° N 20:35:38 69° E 20:38:07 24° SSE
Lacrosse 5 4.4 20:32:47 10° W 20:36:28 20° NW 20:40:11 10° N
USA 186 3.7 20:39:54 13° N 20:39:54 13° N 20:40:15 10° N
Cosmos 1953 2.7 20:34:23 10° SSW 20:38:24 66° W 20:42:27 10° N
Cosmos 2082 Rocket 2.4 20:33:47 10° N 20:39:16 48° ENE 20:41:10 35° ESE
SWAS 4.3 20:36:24 10° SSW 20:40:40 88° ESE 20:44:59 10° NNE
OAO 1 4.4 20:37:16 10° WNW 20:42:47 88° SSW 20:44:49 40° ESE
GP-B 3.0 20:40:04 18° SSE 20:43:22 72° E 20:47:48 10° N
Envisat 3.3 20:42:59 39° ESE 20:44:01 44° ENE 20:48:50 10° N
Cosmos 1939 Rocket 4.0 20:45:32 29° NE 20:45:32 29° NE 20:48:19 10° N
Helios 1A 2.8 20:43:23 42° SSE 20:44:41 70° ENE 20:48:51 10° N
Delta 2 Rocket 4.0 20:42:26 10° W 20:47:00 48° SSW 20:47:57 40° SSE
Cosmos 1271 Rocket 2.6 20:45:01 26° S 20:47:08 71° E 20:51:09 10° NNE
Cosmos 2016 Rocket 4.2 20:47:02 32° SE 20:49:07 43° E 20:54:54 10° NNE
Resurs 01 Rocket 2.7 20:45:14 10° S 20:49:26 44° W 20:53:39 10° NNW
Cosmos 1766 Rocket 3.4 20:46:59 10° N 20:51:28 75° E 20:52:35 49° SSE
Gblst 52 Del rocket 4.4 20:50:40 10° SSW 20:56:32 47° SE 20:56:47 47° ESE
Cosmos-2242 3.0 20:53:17 10° S 20:57:31 79° W 21:01:47 10° N
Cosmos 1048 Rocket 3.8 20:55:59 10° NNW 21:01:08 87° E 21:02:27 51° SSE
ERS-1 Rocket 4.0 21:03:21 30° NE 21:03:21 30° NE 21:06:35 10° N
Lacrosse 5 rocket 3.4 21:00:57 10° N 21:02:25 16° NNE 21:02:25 16° NNE
Cosmos 2100 Rocket 4.0 20:58:46 10° S 21:05:05 86° W 21:11:28 10° N
SeaSat 1 4.2 21:01:25 10° S 21:05:41 30° WSW 21:09:59 10° NW
SJ-11-01 4.2 21:06:19 69° ENE 21:06:19 69° ENE 21:10:53 10° N
SAR-Lupe-4 4.4 21:05:55 46° WSW 21:06:12 48° W 21:09:41 10° NNW
Cosmos 1674 3.0 21:03:29 10° NNW 21:06:52 62° NW 21:06:52 62° NW
Cosmos 1802 Rocket 4.0 21:20:17 10° SSW 21:26:23 74° W 21:32:33 10° N
Cosmos 1833 Rocket 3.5 21:41:53 10° NW 21:47:13 45° WSW 21:47:24 45° WSW
Timation 2 Rocket 4.4 21:44:15 10° NNW 21:50:17 53° WSW 21:50:27 53° WSW
ATLAS 5 CENTAUR R/B 4.4 21:57:49 10° W 22:01:02 18° NW 22:04:25 10° N
USA 215 4.4 21:57:46 10° NNE 22:03:44 40° NW 22:09:42 10° WSW
Cosmos 2082 Rocket 4.4 22:19:05 10° WNW 22:22:52 19° W 22:23:04 19° WSW
